GW1931 Weather Reports


Display with metric or nautical units.
time (UTC)temp
F
wind
direction
speed
MPH
gust
MPH
rain 1hr
in
rain 24hr
in
rain mn
in
humidity
%
barometer
mb
20260502201537 76 56 2.0 5.0 0.00 0.00 0.00 50
20260502194536 75 327 4.0 7.0 0.00 0.00 0.00 49
20260502191534 75 61 5.0 6.0 0.00 0.00 0.00 52
20260502184531 73 299 2.0 5.0 0.00 0.00 0.00 56
20260502181527 73 357 7.0 9.0 0.00 0.00 0.00 54
20260502161517 68 193 2.0 8.0 0.00 0.00 0.00 67
20260502151351 65 318 3.0 5.0 0.00 0.00 0.00 77
20260502121341 51 122 1.0 2.0 0.00 0.00 0.00 99
20260502114340 50 87 1.0 2.0 0.00 0.00 0.00 99
20260502111336 50 83 1.0 2.0 0.00 0.00 0.00 99
20260502104332 51 127 0.0 1.0 0.00 0.00 0.00 99
20260502101327 51 2 3.0 3.0 0.00 0.00 0.00 99
20260502091326 52 293 1.0 5.0 0.00 0.00 0.00 98
20260502071320 55 205 1.0 5.0 0.00 0.00 0.00 96
20260502064318 55 89 1.0 3.0 0.00 0.00 0.00 96
20260502061315 55 354 3.0 5.0 0.00 0.00 0.00 96
20260502054310 54 61 4.0 7.0 0.00 0.00 0.00 96
20260502051308 55 286 2.0 7.0 0.00 0.00 0.00 97
20260502044305 55 302 3.0 5.0 0.00 0.95 0.95 99
20260502041302 55 348 2.0 6.0 0.00 0.95 0.95 99
20260502034302 55 15 2.0 3.0 0.00 0.95 0.95 99
20260502031258 56 338 3.0 6.0 0.00 0.95 0.95 99
20260502024256 56 307 3.0 7.0 0.00 0.95 0.95 99
20260502021251 56 77 3.0 5.0 0.00 0.95 0.95 99
20260502014250 56 4 6.0 8.0 0.00 0.95 0.95 99
20260502011247 56 347 4.0 7.0 0.00 0.95 0.95 99
20260502004247 57 324 5.0 7.0 0.00 0.95 0.95 99
20260502001242 58 33 2.0 9.0 0.00 0.95 0.95 99
20260501234239 59 155 1.0 3.0 0.00 0.95 0.95 99
20260501231234 59 278 2.0 2.0 0.00 0.95 0.95 99
20260501224231 59 314 4.0 9.0 0.00 0.95 0.95 98
20260501221228 60 338 3.0 7.0 0.00 0.95 0.95 99
20260501214224 60 329 3.0 6.0 0.00 0.95 0.95 99
20260501211221 60 21 1.0 5.0 0.00 0.95 0.95 99
20260501204219 60 51 3.0 7.0 0.00 0.95 0.95 99